N4DWK Weather Reports


Display with metric or nautical units.
time (UTC)temp
F
wind
direction
speed
MPH
gust
MPH
rain 1hr
in
rain 24hr
in
rain mn
in
humidity
%
barometer
mb
20260903044007 78 136 0.0 0.0 0.00 0.00 0.00 93 1016.8
20260903043507 78 136 0.0 0.0 0.00 0.00 0.00 93 1016.8
20260903043006 78 136 0.0 0.0 0.00 0.00 0.00 93 1016.8
20260903042506 78 136 0.0 0.0 0.00 0.00 0.00 93 1016.8
20260903042007 78 136 0.0 0.0 0.00 0.00 0.00 93 1016.7
20260903041506 78 136 0.0 0.0 0.00 0.00 0.00 93 1016.6
20260903041007 78 136 0.0 0.0 0.00 0.00 0.00 92 1016.6
20260903040506 79 136 0.0 0.0 0.00 0.00 0.00 92 1016.6
20260903040009 79 136 0.0 0.0 0.00 0.00 0.00 92 1016.5
20260903035506 79 136 0.0 0.0 0.00 0.00 0.00 92 1016.5
20260903035006 79 136 0.0 0.0 0.00 0.00 0.00 92 1016.5
20260903034506 79 136 0.0 0.0 0.00 0.00 0.00 92 1016.6
20260903034006 79 136 0.0 0.0 0.00 0.00 0.00 92 1016.3
20260903033507 79 136 0.0 0.0 0.00 0.00 0.00 92 1016.3
20260903033006 79 136 0.0 0.0 0.00 0.00 0.00 92 1016.2
20260903032506 79 136 0.0 0.0 0.00 0.00 0.00 91 1016.2
20260903032007 80 136 0.0 0.0 0.00 0.00 0.00 92 1016.3
20260903031506 80 136 0.0 0.0 0.00 0.00 0.00 92 1016.3
20260903031006 80 136 0.0 0.0 0.00 0.00 0.00 91 1016.3
20260903030506 80 136 0.0 0.0 0.00 0.00 0.00 91 1016.4
20260903030007 80 136 0.0 0.0 0.00 0.00 0.00 91 1016.4
20260903025506 80 136 0.0 0.0 0.00 0.00 0.00 91 1016.5
20260903025007 80 136 0.0 0.0 0.00 0.00 0.00 91 1016.4
20260903024506 80 136 0.0 0.0 0.00 0.00 0.00 91 1016.4
20260903024006 80 136 0.0 0.0 0.00 0.00 0.00 91 1016.6
20260903023506 80 136 0.0 0.0 0.00 0.00 0.00 90 1016.6
20260903023006 80 136 0.0 0.0 0.00 0.00 0.00 90 1016.6
20260903022507 80 136 0.0 0.0 0.00 0.00 0.00 90 1016.7
20260903022006 80 136 0.0 0.0 0.00 0.00 0.00 90 1016.7
20260903021507 80 136 0.0 0.0 0.00 0.00 0.00 90 1016.7
20260903021007 81 136 0.0 0.0 0.00 0.00 0.00 90 1016.7
20260903020506 81 136 0.0 0.0 0.00 0.00 0.00 90 1016.8
20260903020006 81 136 0.0 0.0 0.00 0.00 0.00 89 1016.8
20260903015506 81 136 0.0 0.0 0.00 0.00 0.00 89 1016.9
20260903015007 81 136 0.0 0.0 0.00 0.00 0.00 89 1017.0
20260903014506 81 136 0.0 0.0 0.00 0.00 0.00 89 1017.0
20260903014006 81 136 0.0 0.0 0.00 0.00 0.00 89 1016.8
20260903013506 81 136 0.0 0.0 0.00 0.00 0.00 88 1017.0
20260903013006 81 136 0.0 0.0 0.00 0.00 0.00 88 1017.0
20260903012507 81 136 0.0 0.0 0.00 0.00 0.00 88 1017.1
20260903012007 81 136 0.0 0.0 0.00 0.00 0.00 88 1017.0
20260903011506 82 136 0.0 0.0 0.00 0.00 0.00 88 1017.0
20260903011006 82 136 0.0 3.0 0.00 0.00 0.00 88 1016.9
20260903010506 82 136 0.0 3.0 0.00 0.00 0.00 87 1016.9
20260903010007 82 137 0.0 3.0 0.00 0.00 0.00 87 1016.9
20260903005506 82 137 1.0 3.0 0.00 0.00 0.00 87 1016.8
20260903005006 82 195 1.0 3.0 0.00 0.00 0.00 87 1016.8
20260903004506 82 199 1.0 3.0 0.00 0.00 0.00 86 1016.7
20260903004006 82 202 0.0 3.0 0.00 0.00 0.00 86 1016.7
20260903003505 82 202 1.0 3.0 0.00 0.00 0.00 86 1016.7
20260903003007 82 107 0.0 3.0 0.00 0.00 0.00 86 1016.6
20260903002507 83 107 0.0 3.0 0.00 0.00 0.00 85 1016.4
20260903002006 83 107 1.0 3.0 0.00 0.00 0.00 85 1016.5
20260903001506 83 107 0.0 1.0 0.00 0.00 0.00 85 1016.7
20260903001007 83 107 0.0 2.0 0.00 0.00 0.00 85 1016.6
20260903000506 83 107 1.0 2.0 0.00 0.00 0.00 85 1016.5
20260903000006 83 107 0.0 3.0 0.00 0.00 0.00 84 1016.5
20260902235506 83 107 1.0 3.0 0.00 0.00 0.00 84 1016.3
20260902235007 83 107 0.0 0.0 0.00 0.00 0.00 84 1016.3
20260902234506 83 107 0.0 0.0 0.00 0.00 0.00 84 1016.4
20260902234006 83 107 0.0 5.0 0.00 0.00 0.00 84 1016.4
20260902233506 83 107 0.0 6.0 0.00 0.00 0.00 83 1016.3
20260902233006 83 126 1.0 7.0 0.00 0.00 0.00 83 1016.3
20260902232506 84 126 3.0 7.0 0.00 0.00 0.00 83 1016.4
20260902232006 84 126 1.0 3.0 0.00 0.00 0.00 83 1016.6
20260902231506 84 139 1.0 3.0 0.00 0.00 0.00 83 1016.9
20260902231006 84 147 0.0 0.0 0.00 0.00 0.00 83 1017.0
20260902230507 84 145 0.0 3.0 0.00 0.00 0.00 83 1017.0
20260902230006 84 142 1.0 5.0 0.00 0.00 0.00 83 1016.8
20260902225506 84 137 1.0 9.0 0.00 0.00 0.00 83 1016.7
20260902225006 84 123 1.0 9.0 0.00 0.00 0.00 83 1016.4
20260902224506 85 120 2.0 9.0 0.00 0.00 0.00 83 1016.5
20260902224006 85 163 2.0 8.0 0.00 0.00 0.00 82 1016.8
20260902223506 85 131 2.0 5.0 0.00 0.00 0.00 81 1016.9
20260902223006 85 134 2.0 5.0 0.00 0.00 0.00 81 1017.1
20260902222506 86 311 1.0 5.0 0.00 0.00 0.00 80 1017.2
20260902222006 86 158 1.0 5.0 0.00 0.00 0.00 79 1017.4
20260902221506 87 195 2.0 3.0 0.00 0.00 0.00 78 1017.1
20260902221008 87 173 0.0 3.0 0.00 0.00 0.00 76 1017.0
20260902220507 87 166 0.0 3.0 0.00 0.00 0.00 75 1017.0
20260902220006 88 133 1.0 3.0 0.00 0.00 0.00 74 1016.8
20260902215507 88 141 0.0 3.0 0.00 0.00 0.00 71 1016.9
20260902215006 89 140 1.0 3.0 0.00 0.00 0.00 68 1017.0
20260902214506 89 126 1.0 3.0 0.00 0.00 0.00 66 1017.0
20260902214006 90 204 1.0 5.0 0.00 0.00 0.00 64 1016.9
20260902213506 90 207 2.0 10.0 0.00 0.00 0.00 66 1016.7
20260902213006 89 139 5.0 10.0 0.00 0.00 0.00 66 1016.8
20260902212506 90 132 6.0 9.0 0.00 0.00 0.00 63 1017.0
20260902212006 90 23 4.0 8.0 0.00 0.00 0.00 66 1017.0
20260902211506 89 138 2.0 12.0 0.00 0.00 0.00 70 1016.6
20260902211007 88 112 3.0 17.0 0.00 0.00 0.00 69 1016.7
20260902210506 89 127 5.0 17.0 0.00 0.00 0.00 71 1016.8
20260902210007 89 136 2.0 12.0 0.00 0.00 0.00 70 1016.7
20260902205506 91 96 6.0 20.0 0.00 0.00 0.00 68 1016.8
20260902205007 92 149 5.0 20.0 0.00 0.00 0.00 66 1016.9
20260902204506 94 128 3.0 16.0 0.00 0.00 0.00 62 1016.7
20260902204007 96 140 3.0 16.0 0.00 0.00 0.00 60 1016.6
20260902203506 96 46 5.0 16.0 0.00 0.00 0.00 62 1016.5
20260902203006 95 103 3.0 9.0 0.00 0.00 0.00 63 1016.5
20260902202505 94 11 3.0 7.0 0.00 0.00 0.00 64 1016.5
20260902202005 95 49 2.0 10.0 0.00 0.00 0.00 61 1016.6
20260902201505 96 134 2.0 10.0 0.00 0.00 0.00 60 1016.6
20260902201006 97 30 3.0 10.0 0.00 0.00 0.00 59 1016.6
20260902200505 97 36 1.0 8.0 0.00 0.00 0.00 60 1016.7
20260902200006 97 5 2.0 8.0 0.00 0.00 0.00 60 1016.7
20260902195507 97 41 3.0 9.0 0.00 0.00 0.00 56 1016.7
20260902195006 98 355 5.0 9.0 0.00 0.00 0.00 57 1016.6
20260902194505 96 5 1.0 6.0 0.00 0.00 0.00 61 1016.4
20260902194005 96 139 1.0 6.0 0.00 0.00 0.00 60 1016.4
20260902193506 97 156 2.0 6.0 0.00 0.00 0.00 60 1016.4
20260902193007 97 30 2.0 6.0 0.00 0.00 0.00 59 1016.4
20260902192506 98 5 1.0 5.0 0.00 0.00 0.00 57 1016.4
20260902192005 96 126 1.0 5.0 0.00 0.00 0.00 60 1016.5
20260902191505 98 116 2.0 6.0 0.00 0.00 0.00 57 1016.5
20260902191005 99 358 2.0 6.0 0.00 0.00 0.00 55 1016.6
20260902190505 100 32 1.0 6.0 0.00 0.00 0.00 57 1016.6
20260902190007 99 0 2.0 5.0 0.00 0.00 0.00 55 1016.7
20260902185506 98 358 3.0 5.0 0.00 0.00 0.00 55 1016.7
20260902185005 97 329 2.0 5.0 0.00 0.00 0.00 58 1016.8
20260902184506 98 293 2.0 5.0 0.00 0.00 0.00 56 1016.9
20260902184006 98 264 2.0 6.0 0.00 0.00 0.00 57 1017.0
20260902183505 98 292 2.0 6.0 0.00 0.00 0.00 56 1017.1
20260902183005 98 352 3.0 6.0 0.00 0.00 0.00 57 1017.0
20260902182506 97 343 2.0 6.0 0.00 0.00 0.00 59 1017.2
20260902182006 97 47 3.0 7.0 0.00 0.00 0.00 58 1017.2
20260902181506 96 134 2.0 8.0 0.00 0.00 0.00 58 1017.2
20260902181006 97 39 3.0 8.0 0.00 0.00 0.00 58 1017.3
20260902180506 96 123 1.0 9.0 0.00 0.00 0.00 57 1017.3
20260902180007 97 32 3.0 9.0 0.00 0.00 0.00 57 1017.2
20260902175505 97 0 4.0 7.0 0.00 0.00 0.00 58 1017.2
20260902175005 96 4 2.0 7.0 0.00 0.00 0.00 58 1017.3
20260902174506 96 27 3.0 7.0 0.00 0.00 0.00 58 1017.3
20260902174006 95 25 2.0 5.0 0.00 0.00 0.00 59 1017.3
20260902173506 95 26 2.0 8.0 0.00 0.00 0.00 59 1017.3
20260902173006 95 38 1.0 10.0 0.00 0.00 0.00 59 1017.3
20260902172506 95 355 3.0 10.0 0.00 0.00 0.00 60 1017.3
20260902172006 94 49 1.0 7.0 0.00 0.00 0.00 61 1017.3
20260902171506 93 343 2.0 6.0 0.00 0.00 0.00 64 1017.2
20260902171005 93 35 2.0 9.0 0.00 0.00 0.00 63 1017.3
20260902170506 93 27 3.0 9.0 0.00 0.00 0.00 63 1017.3
20260902170005 92 13 3.0 8.0 0.00 0.00 0.00 62 1017.3
20260902165506 92 359 3.0 8.0 0.00 0.00 0.00 63 1017.3
20260902165006 92 8 3.0 8.0 0.00 0.00 0.00 64 1017.4
20260902164505 92 19 2.0 5.0 0.00 0.00 0.00 64 1017.4
20260902164005 92 353 2.0 6.0 0.00 0.00 0.00 65 1017.4
20260902163505 92 5 2.0 6.0 0.00 0.00 0.00 64 1017.4
20260902163006 92 0 2.0 6.0 0.00 0.00 0.00 64 1017.4
20260902162505 91 355 0.0 5.0 0.00 0.00 0.00 64 1017.3
20260902162006 91 0 1.0 5.0 0.00 0.00 0.00 64 1017.4
20260902161506 91 338 2.0 5.0 0.00 0.00 0.00 65 1017.5
20260902161006 91 5 1.0 5.0 0.00 0.00 0.00 66 1017.5
20260902160505 91 355 2.0 6.0 0.00 0.00 0.00 65 1017.6
20260902160008 91 12 2.0 6.0 0.00 0.00 0.00 64 1017.5
20260902155505 91 355 2.0 6.0 0.00 0.00 0.00 65 1017.6
20260902155006 91 5 2.0 6.0 0.00 0.00 0.00 65 1017.6
20260902154506 90 10 2.0 6.0 0.00 0.00 0.00 67 1017.6
20260902154005 90 5 2.0 6.0 0.00 0.00 0.00 68 1017.6
20260902153507 89 16 2.0 5.0 0.00 0.00 0.00 68 1017.6
20260902153005 89 294 0.0 3.0 0.00 0.00 0.00 68 1017.5
20260902152506 89 355 2.0 5.0 0.00 0.00 0.00 68 1017.6
20260902152005 89 117 3.0 5.0 0.00 0.00 0.00 67 1017.7
20260902151505 88 5 1.0 5.0 0.00 0.00 0.00 68 1017.7
20260902151006 88 37 1.0 6.0 0.00 0.00 0.00 68 1017.8
20260902150506 88 5 3.0 6.0 0.00 0.00 0.00 68 1017.9
20260902150006 88 345 3.0 6.0 0.00 0.00 0.00 69 1017.9
20260902145505 88 12 2.0 8.0 0.00 0.00 0.00 69 1017.9
20260902145005 88 8 2.0 8.0 0.00 0.00 0.00 69 1017.9
20260902144506 88 1 3.0 8.0 0.00 0.00 0.00 70 1017.9
20260902144006 88 353 2.0 5.0 0.00 0.00 0.00 70 1017.9
20260902143505 88 14 2.0 5.0 0.00 0.00 0.00 70 1017.9
20260902143006 88 31 2.0 6.0 0.00 0.00 0.00 71 1017.9
20260902142505 88 323 2.0 6.0 0.00 0.00 0.00 71 1017.8
20260902142006 87 113 1.0 3.0 0.00 0.00 0.00 73 1017.7
20260902141505 87 19 2.0 5.0 0.00 0.00 0.00 73 1017.8
20260902141005 87 11 1.0 5.0 0.00 0.00 0.00 73 1017.7
20260902140505 87 9 1.0 5.0 0.00 0.00 0.00 74 1017.7
20260902140005 87 34 1.0 3.0 0.00 0.00 0.00 74 1017.7
20260902135506 87 67 0.0 3.0 0.00 0.00 0.00 74 1017.6
20260902135007 87 68 1.0 3.0 0.00 0.00 0.00 74 1017.6
20260902134505 87 38 1.0 5.0 0.00 0.00 0.00 74 1017.5
20260902134006 87 7 2.0 5.0 0.00 0.00 0.00 75 1017.5
20260902133505 87 18 2.0 3.0 0.00 0.00 0.00 75 1017.5
20260902133005 86 18 2.0 3.0 0.00 0.00 0.00 76 1017.5
20260902132506 86 19 2.0 3.0 0.00 0.00 0.00 77 1017.4
20260902132005 85 5 2.0 3.0 0.00 0.00 0.00 77 1017.5
20260902131505 85 5 0.0 3.0 0.00 0.00 0.00 78 1017.5
20260902131006 85 5 1.0 3.0 0.00 0.00 0.00 79 1017.5
20260902130505 84 5 2.0 3.0 0.00 0.00 0.00 80 1017.5
20260902130005 83 5 0.0 3.0 0.00 0.00 0.00 83 1017.5
20260902125505 82 5 2.0 3.0 0.00 0.00 0.00 83 1017.6
20260902125005 81 5 0.0 3.0 0.00 0.00 0.00 83 1017.4
20260902124505 81 5 0.0 2.0 0.00 0.00 0.00 85 1017.4
20260902124005 80 5 0.0 2.0 0.00 0.00 0.00 84 1017.4
20260902123505 80 5 1.0 5.0 0.00 0.00 0.00 85 1017.4
20260902123005 79 5 3.0 5.0 0.00 0.00 0.00 87 1017.4
20260902122505 79 336 0.0 1.0 0.00 0.00 0.00 89 1017.4
20260902122005 79 336 0.0 0.0 0.00 0.00 0.00 90 1017.4
20260902121505 78 336 0.0 0.0 0.00 0.00 0.00 92 1017.4
20260902121005 78 336 0.0 0.0 0.00 0.00 0.00 92 1017.4
20260902120505 78 336 0.0 0.0 0.00 0.00 0.00 93 1017.3
20260902120006 77 336 0.0 0.0 0.00 0.00 0.00 93 1017.3
20260902115505 77 336 0.0 0.0 0.00 0.00 0.00 93 1017.3
20260902115005 77 336 0.0 0.0 0.00 0.00 0.00 93 1017.2
20260902114505 77 336 0.0 0.0 0.00 0.00 0.00 93 1017.2
20260902114005 77 336 0.0 0.0 0.00 0.00 0.00 93 1017.3
20260902113504 77 336 0.0 0.0 0.00 0.00 0.00 93 1017.2
20260902113006 76 336 0.0 0.0 0.00 0.00 0.00 93 1017.3
20260902112506 76 336 0.0 0.0 0.00 0.00 0.00 93 1017.3
20260902112005 76 336 0.0 0.0 0.00 0.00 0.00 92 1017.3
20260902111505 76 336 0.0 0.0 0.00 0.00 0.00 92 1017.3
20260902111005 76 336 0.0 0.0 0.00 0.00 0.00 92 1017.3
20260902110505 77 336 0.0 0.0 0.00 0.00 0.00 92 1017.3
20260902110007 77 336 0.0 0.0 0.00 0.00 0.00 92 1017.3
20260902105505 77 336 0.0 0.0 0.00 0.00 0.00 92 1017.2
20260902105005 77 336 0.0 0.0 0.00 0.00 0.00 92 1017.2
20260902104505 77 336 0.0 0.0 0.00 0.00 0.00 92 1017.1
20260902104005 77 336 0.0 0.0 0.00 0.00 0.00 92 1017.0
20260902103505 77 336 0.0 0.0 0.00 0.00 0.00 92 1017.0
20260902103005 77 336 0.0 0.0 0.00 0.00 0.00 92 1017.0
20260902102505 77 336 0.0 0.0 0.00 0.00 0.00 92 1017.0
20260902102006 77 336 0.0 0.0 0.00 0.00 0.00 92 1017.0
20260902101506 77 336 0.0 0.0 0.00 0.00 0.00 92 1017.0
20260902101007 77 336 0.0 0.0 0.00 0.00 0.00 92 1016.9
20260902100505 77 336 0.0 0.0 0.00 0.00 0.00 92 1016.8
20260902100005 77 336 0.0 0.0 0.00 0.00 0.00 92 1016.8
20260902095505 77 336 0.0 0.0 0.00 0.00 0.00 92 1016.7
20260902095005 77 336 0.0 0.0 0.00 0.00 0.00 92 1016.6
20260902094505 77 336 0.0 0.0 0.00 0.00 0.00 92 1016.7
20260902094004 77 336 0.0 0.0 0.00 0.00 0.00 92 1016.7
20260902093505 76 336 0.0 0.0 0.00 0.00 0.00 92 1016.7
20260902093005 76 336 0.0 0.0 0.00 0.00 0.00 92 1016.6
20260902092504 76 336 0.0 0.0 0.00 0.00 0.00 93 1016.6
20260902092005 76 336 0.0 1.0 0.00 0.00 0.00 93 1016.6
20260902091505 76 336 0.0 1.0 0.00 0.00 0.00 93 1016.6
20260902091005 76 229 0.0 1.0 0.00 0.00 0.00 93 1016.6
20260902090505 76 223 0.0 0.0 0.00 0.00 0.00 93 1016.5
20260902090005 76 223 0.0 0.0 0.00 0.00 0.00 93 1016.5
20260902085505 76 223 0.0 0.0 0.00 0.00 0.00 93 1016.5
20260902085005 76 223 0.0 0.0 0.00 0.00 0.00 93 1016.6
20260902084506 76 223 0.0 0.0 0.00 0.00 0.00 93 1016.6
20260902084005 76 223 0.0 0.0 0.00 0.00 0.00 93 1016.6
20260902083505 76 223 0.0 0.0 0.00 0.00 0.00 93 1016.5
20260902083005 76 223 0.0 0.0 0.00 0.00 0.00 92 1016.4
20260902082504 76 223 0.0 0.0 0.00 0.00 0.00 92 1016.4
20260902082005 76 223 0.0 0.0 0.00 0.00 0.00 92 1016.4
20260902081505 76 223 0.0 0.0 0.00 0.00 0.00 92 1016.3
20260902081005 76 223 0.0 0.0 0.00 0.00 0.00 92 1016.3
20260902080504 77 223 0.0 0.0 0.00 0.00 0.00 92 1016.3
20260902080005 77 223 0.0 0.0 0.00 0.00 0.00 92 1016.3
20260902075505 77 223 0.0 0.0 0.00 0.00 0.00 92 1016.3
20260902075005 77 223 0.0 0.0 0.00 0.00 0.00 92 1016.3
20260902074504 77 223 0.0 0.0 0.00 0.00 0.00 92 1016.2
20260902074005 77 223 0.0 0.0 0.00 0.00 0.00 92 1016.3
20260902073505 77 223 0.0 0.0 0.00 0.00 0.00 92 1016.3
20260902073005 77 223 0.0 0.0 0.00 0.00 0.00 92 1016.3
20260902072505 77 223 0.0 0.0 0.00 0.00 0.00 91 1016.3
20260902072004 77 223 0.0 0.0 0.00 0.00 0.00 91 1016.3
20260902071505 77 223 0.0 0.0 0.00 0.00 0.00 91 1016.3
20260902071004 77 223 0.0 0.0 0.00 0.00 0.00 91 1016.4
20260902070504 77 223 0.0 0.0 0.00 0.00 0.00 91 1016.4
20260902070007 77 223 0.0 0.0 0.00 0.00 0.00 91 1016.4
20260902065504 77 223 0.0 0.0 0.00 0.00 0.00 91 1016.4
20260902065005 77 223 0.0 0.0 0.00 0.00 0.00 91 1016.4
20260902064504 77 223 0.0 0.0 0.00 0.00 0.00 90 1016.3
20260902064005 77 223 0.0 0.0 0.00 0.00 0.00 90 1016.2
20260902063505 77 223 0.0 0.0 0.00 0.00 0.00 90 1016.2
20260902063005 77 223 0.0 0.0 0.00 0.00 0.00 89 1016.2
20260902062505 78 223 0.0 0.0 0.00 0.00 0.00 89 1016.2
20260902062005 78 223 0.0 0.0 0.00 0.00 0.00 89 1016.2
20260902061505 78 223 0.0 0.0 0.00 0.00 0.00 89 1016.2
20260902061004 78 223 0.0 0.0 0.00 0.00 0.00 89 1016.3
20260902060505 78 223 0.0 0.0 0.00 0.00 0.00 88 1016.1
20260902060005 78 223 0.0 0.0 0.00 0.00 0.00 88 1016.1
20260902055506 78 223 0.0 0.0 0.00 0.00 0.00 88 1016.0
20260902055005 78 223 0.0 0.0 0.00 0.00 0.00 87 1016.1
20260902054505 78 223 0.0 0.0 0.00 0.00 0.00 87 1016.1
20260902054004 78 223 0.0 0.0 0.00 0.00 0.00 87 1016.1
20260902053504 78 223 0.0 0.0 0.00 0.00 0.00 87 1016.1
20260902053004 78 223 0.0 0.0 0.00 0.00 0.00 86 1016.1
20260902052505 79 223 0.0 0.0 0.00 0.00 0.00 86 1016.1
20260902052004 79 223 0.0 0.0 0.00 0.00 0.00 86 1016.2
20260902051504 79 223 0.0 0.0 0.00 0.00 0.00 86 1016.3
20260902051004 79 223 0.0 0.0 0.00 0.00 0.00 86 1016.3
20260902050504 79 223 0.0 0.0 0.00 0.00 0.00 86 1016.3
20260902050007 79 223 0.0 0.0 0.00 0.00 0.00 86 1016.2
20260902045505 79 223 0.0 0.0 0.00 0.00 0.00 86 1016.2
20260902045005 79 223 0.0 0.0 0.00 0.00 0.00 85 1016.1
20260902044504 79 223 0.0 0.0 0.00 0.00 0.00 85 1016.1